Regional Weather Roundup
Issued by NWS

Home | Current Version | Previous Version | Text Only | Print | Product List | Glossary Off
Versions: 1 2 3 4 5 6 7 8 9 10 11 12 13 14 15 16 17 18 19 20 21 22 23 24 25 26 27 28 29 30 31 32 33 34 35 36 37 38 39 40 41 42 43 44 45 46 47 48 49 50

000
ASUS43 KFSD 211802
RWRSD

WEATHER ROUNDUP FOR SOUTH DAKOTA
NATIONAL WEATHER SERVICE SIOUX FALLS SD
1200 PM CST SAT JAN 21 2017

NOTE: "FAIR" INDICATES FEW OR NO CLOUDS BELOW 12,000 FEET WITH NO
SIGNIFICANT WEATHER AND/OR OBSTRUCTIONS TO VISIBILITY.


SDZ001>005-009-010-012>017-211900-
NORTHWEST AND NORTH CENTRAL SOUTH DAKOTA

CITY           SKY/WX    TMP DP  RH WIND       PRES   REMARKS
BUFFALO          N/A     32  26  78 W9        29.32R WCI  24
FAITH            N/A     33  29  85 NW13      29.37S WCI  24
MOBRIDGE       CLOUDY    28  24  85 NW5       29.35R WCI  23
$$

SDZ012>016-024>037-041>051-057-063-072>074-211900-
SOUTHWEST AND SOUTH CENTRAL SOUTH DAKOTA

CITY           SKY/WX    TMP DP  RH WIND       PRES   REMARKS
RAPID CTY ARPT SUNNY     38  31  76 S5        29.39S
PIERRE         FOG       27  26  96 N3        29.38F VSB 1
CUSTER         MOSUNNY   35  26  69 CALM      29.36S
ELLSWORTH AFB  SUNNY     41  32  70 N10       29.39S
PHILIP         PTSUNNY   37  31  78 W12       29.39F
PINE RIDGE     SUNNY     32  29  88 SW6       29.43S WCI  26
SPEARFISH      FAIR      37  30  75 NW5       29.40R
WINNER         FAIR      42  33  70 NW15      29.39S
$$

SDZ004>011-016>023-039-040-211900-
NORTHEAST SOUTH DAKOTA

CITY           SKY/WX    TMP DP  RH WIND       PRES   REMARKS
ABERDEEN       CLOUDY    30  25  81 SW5       29.38R WCI  25
WATERTOWN      FOG       34  34 100 S3        29.35S VSB 1/4
BROOKINGS      CLOUDY    35  35 100 SW6       29.35S FOG
SISSETON         N/A     34  34 100 SE7       29.38S WCI  28
$$

SDZ017-020-022-023-036>040-048>070-211900-
SOUTHEAST SOUTH DAKOTA

CITY           SKY/WX    TMP DP  RH WIND       PRES   REMARKS
SIOUX FALLS    CLOUDY    32  31  96 W8        29.39S WCI  25
HURON          CLOUDY    30  28  92 NW6       29.39S WCI  24
CHAMBERLAIN    CLOUDY    32  31  96 W12       29.40S WCI  23
MITCHELL       CLOUDY    32  29  88 W7        29.40F WCI  26
YANKTON        CLOUDY    34  27  75 W9        29.41S WCI  26
$$

ABBREVIATIONS USED IN REMARKS
   TC - TEMPERATURE IN CELSIUS
  WCI - WIND CHILL INDEX
   HX - HEAT INDEX
  VSB - VISIBILITY





USA.gov is the U.S. government's official web portal to all federal, state and local government web resources and services.